Startseite
Über Mich
AHP4
Galerie
Sehschlangen
Tourenbuch
Bookmarks
Elektronik
Bewertung
Geschichten
[Tagesmessung] [Jahreswerte] [Information]

Messwerte vom 23.03.2022

Die letzten Messwerte von 23:58:48 Uhr:
KategorieMesswert
Temperatur [°C]3
Luftdruck [mBar]1014
Sonneneinstrahlung0
Wind [km/h]0 aus Südost
Niederschlag [l/m²]0
rel.Luftfeucht.63.1%
CO2 [ppm]653

Diagramme
Messwerte vom 23.03.2022
Tagesaggregation
KategorieMinimumMaximumSchnittSumme
Temperatur [°C]-4196.4583
Luftdruck [mBar]101310171014.4729
Sonneneinstrahlung246109.2521
Wind [km/h]9
rF [%]20.381.954.11
Niederschlag [l/m²]0
CO2 [ppm]403812638.5
Einordnung alsFrosttag
Vegetationstag

Messungen an benachbarten Tagen: Zur Jahresaggregation 2022
Tabelle aller Messwerte
UhrzeitTemperatur [°C]Luftdruck [mBar]SonneWind [km/h]RichtungRegen [l/m²]rF [%]CO2 [ppm]
00:01:48 0 1015 0 0 SO 0 71.1 808
00:04:47 0 1016 0 1 SO 0 71 803
00:07:49 0 1016 0 0 SO 0 70.6 807
00:10:46 0 1016 0 0 SO 0 70.6 812
00:13:46 0 1015 0 0 SO 0 70.6 810
00:16:47 0 1015 0 0 N 0 70.4 803
00:19:44 0 1016 0 0 N 0 70.7 796
00:22:45 0 1016 0 0 N 0 70.7 799
00:25:46 0 1015 0 0 N 0 71.1 803
00:28:46 0 1015 0 0 N 0 70.9 791
00:31:45 0 1015 0 0 N 0 71.4 785
00:34:46 0 1016 0 0 O 0 71 782
00:37:45 0 1016 0 0 O 0 70.8 788
00:40:45 -1 1016 0 0 O 0 71 785
00:43:46 -1 1016 0 0 O 0 71.2 782
00:46:45 -1 1016 0 0 O 0 71.5 785
00:49:47 -1 1016 0 0 O 0 70.9 785
00:52:47 -1 1017 0 0 O 0 71.4 782
00:55:44 -1 1016 0 0 O 0 71.8 776
00:58:45 -1 1015 0 0 O 0 71.7 771
01:01:46 -1 1016 0 0 O 0 71.1 774
01:04:45 -1 1015 0 0 SO 0 71.1 773
01:07:47 -1 1015 0 0 SO 0 71.5 774
01:10:45 -1 1015 0 0 SO 0 72.1 779
01:13:47 -1 1015 0 0 SO 0 72.4 773
01:16:46 -1 1015 0 0 SO 0 72.3 778
01:19:47 -1 1015 0 0 SO 0 72 767
01:22:47 -1 1015 0 0 SO 0 71.8 769
01:25:50 -1 1015 0 0 SO 0 71.8 771
01:28:48 -1 1015 0 0 NW 0 71.9 774
01:31:46 -1 1016 0 0 N 0 72.2 768
01:34:45 -1 1016 0 0 N 0 72.6 761
01:37:45 -1 1016 0 0 N 0 72.4 758
01:40:46 -1 1015 0 0 N 0 72.1 759
01:43:45 -1 1016 0 0 N 0 72.5 764
01:46:45 -1 1016 0 0 N 0 72 759
01:49:45 -1 1015 0 0 N 0 71.7 753
01:52:43 -1 1016 0 0 N 0 72 746
01:55:47 -1 1015 0 0 S 0 72.6 742
01:58:44 -1 1015 0 0 S 0 73.1 738
02:01:47 -1 1016 0 0 S 0 73.6 739
02:04:45 -1 1015 0 0 S 0 74.4 734
02:07:44 -1 1015 0 0 S 0 74.5 741
02:10:47 -1 1015 0 0 S 0 74.8 741
02:13:47 -2 1016 0 0 S 0 74.3 738
02:16:45 -2 1015 0 0 S 0 74.4 738
02:19:47 -2 1015 0 0 S 0 74.7 741
02:22:45 -2 1014 0 0 S 0 74.7 743
02:25:45 -2 1016 0 0 S 0 75 743
02:28:45 -2 1015 0 0 S 0 75.2 744
02:31:44 -2 1016 0 0 S 0 75.3 739
02:34:46 -2 1015 0 0 S 0 75.1 732
02:37:47 -2 1016 0 0 S 0 75.7 732
02:40:48 -2 1014 0 0 S 0 76.8 736
02:43:46 -2 1015 0 0 S 0 77 732
02:46:47 -2 1015 0 0 S 0 77.4 733
02:49:45 -2 1015 0 0 S 0 77.1 727
02:52:45 -2 1014 0 0 S 0 76.8 726
02:55:47 -2 1014 0 0 S 0 77.1 718
02:58:46 -2 1014 0 0 S 0 77.2 720
03:01:46 -2 1015 0 0 S 0 77.5 723
03:04:46 -2 1015 0 0 S 0 77.9 720
03:07:46 -2 1014 0 0 S 0 78.5 723
03:10:45 -2 1015 0 0 S 0 78.5 723
03:13:45 -3 1014 0 0 S 0 78.7 720
03:16:46 -3 1015 0 0 S 0 78.8 720
03:19:50 -3 1016 0 0 S 0 78.6 722
03:22:45 -3 1014 0 0 S 0 78.6 723
03:25:46 -3 1014 0 0 S 0 78.7 726
03:28:49 -3 1015 0 0 S 0 78.9 722
03:31:46 -3 1014 0 0 S 0 79.3 718
03:34:48 -3 1014 0 0 S 0 80.1 722
03:37:48 -3 1015 0 0 S 0 80.2 723
03:40:47 -3 1015 0 0 S 0 80.5 718
03:43:46 -2 1015 0 0 S 0 81.5 720
03:46:48 -2 1015 0 0 S 0 80.8 717
03:49:46 -2 1014 0 0 S 0 80.1 715
03:52:44 -2 1015 0 0 N 0 80.3 713
03:55:45 -2 1014 0 0 N 0 81.1 708
03:58:46 -2 1015 0 0 N 0 79.9 714
04:01:45 -2 1014 0 0 N 0 79.5 708
04:04:47 -2 1015 0 0 N 0 79.9 715
04:07:46 -2 1015 0 0 N 0 81 709
04:10:44 -2 1015 0 0 N 0 81.5 711
04:13:45 -2 1014 0 0 N 0 81.5 705
04:16:44 -2 1015 0 0 N 0 81.2 708
04:19:46 -2 1014 0 0 N 0 81.4 700
04:22:45 -3 1014 0 0 N 0 81.1 703
04:25:44 -3 1015 0 0 N 0 80.8 711
04:28:49 -3 1014 0 0 N 0 80.5 713
04:31:48 -3 1015 0 0 N 0 80.7 708
04:34:45 -3 1014 0 0 N 0 80.8 706
04:37:45 -3 1014 0 0 N 0 81.2 707
04:40:46 -3 1015 0 0 N 0 81.4 700
04:43:46 -3 1015 0 0 N 0 81.4 700
04:46:44 -3 1014 0 0 N 0 81.5 705
04:49:45 -3 1015 0 0 N 0 81.5 717
04:52:46 -3 1014 0 0 N 0 81.8 708
04:55:46 -3 1014 0 0 N 0 81.6 708
04:58:46 -3 1015 0 0 N 0 81.4 700
05:01:48 -3 1014 0 0 N 0 81.3 694
05:04:45 -3 1014 0 0 N 0 81.4 696
05:07:44 -3 1014 0 0 N 0 81.2 703
05:10:45 -3 1015 0 0 O 0 81.2 700
05:13:47 -3 1015 0 0 O 0 81.5 706
05:16:47 -3 1014 0 0 O 0 81.6 708
05:19:47 -3 1015 0 0 SO 0 81.6 695
05:22:52 -3 1015 0 0 SO 0 80.9 695
05:25:48 -3 1015 0 0 SO 0 80.8 690
05:28:48 -3 1014 0 0 SO 0 80.7 695
05:31:47 -3 1014 0 0 SO 0 80.6 700
05:34:46 -3 1015 0 0 SO 0 80.4 702
05:37:49 -3 1015 0 0 SO 0 80.7 705
05:40:47 -3 1015 0 0 SO 0 80.7 697
05:43:47 -3 1015 0 0 SO 0 81 697
05:46:47 -3 1015 0 0 O 0 80.9 700
05:49:47 -3 1014 4 0 O 0 80.9 706
05:52:47 -4 1014 7 0 O 0 80.8 700
05:55:47 -4 1015 12 0 O 0 80.7 702
05:58:48 -4 1015 18 0 O 0 80.7 691
06:01:46 -4 1014 27 0 O 0 80.7 694
06:04:48 -4 1014 39 0 O 0 80.5 695
06:07:48 -4 1014 51 0 O 0 80.5 703
06:10:48 -4 1014 65 0 O 0 80.7 699
06:13:46 -4 1015 78 0 O 0 81.1 691
06:16:49 -4 1015 91 0 O 0 81 685
06:19:47 -4 1015 102 0 O 0 80.9 690
06:22:48 -4 1015 113 0 O 0 81 697
06:25:47 -3 1015 122 0 O 0 81.4 697
06:28:47 -3 1015 131 0 O 0 81.7 691
06:31:46 -3 1015 137 0 O 0 81.9 685
06:34:49 -3 1015 144 0 O 0 81.7 686
06:37:48 -3 1016 149 0 O 0 81.6 689
06:40:47 -3 1015 154 0 O 0 81.6 688
06:43:48 -3 1015 158 0 O 0 81.5 692
06:46:47 -3 1015 162 0 O 0 81.5 691
06:49:46 -3 1015 165 0 O 0 81.5 696
06:52:50 -3 1016 168 0 O 0 81.6 694
06:55:48 -3 1015 170 0 O 0 81.6 696
06:58:48 -3 1016 172 0 O 0 81.6 700
07:01:48 -3 1015 174 0 O 0 81.5 697
07:04:48 -3 1016 176 0 O 0 81.4 696
07:07:47 -3 1015 177 0 O 0 81.2 682
07:10:48 -3 1016 179 0 O 0 80.9 682
07:13:50 -3 1015 181 0 O 0 80.9 688
07:16:48 -2 1016 181 0 O 0 80.9 682
07:19:49 -2 1016 182 0 O 0 80.8 679
07:22:49 -2 1016 182 0 O 0 80.9 676
07:25:49 -2 1016 183 0 NW 0 81 694
07:28:50 -2 1016 184 0 NW 0 80.8 705
07:31:49 -2 1016 184 0 NW 0 80.6 708
07:34:48 -2 1016 185 0 NW 0 80.6 715
07:37:49 -2 1016 186 0 NW 0 80.6 720
07:40:49 -2 1015 186 0 NW 0 80.4 738
07:43:48 -1 1016 55 0 NW 0 80.4 723
07:46:49 -1 1015 187 0 NW 0 80.2 568
07:49:49 -1 1016 188 0 NW 0 80.1 598
07:52:48 -1 1016 188 0 NW 0 79.9 679
07:55:51 -1 1016 189 0 NW 0 80.1 689
07:58:48 0 1015 189 0 NW 0 80.2 682
08:01:48 0 1016 189 0 NW 0 79.8 671
08:04:49 0 1016 190 0 NW 0 79.6 659
08:07:50 0 1016 190 0 NW 0 79.6 648
08:10:51 0 1016 190 0 NW 0 79.3 642
08:13:47 1 1017 191 0 NW 0 79.1 642
08:16:46 1 1016 191 0 W 0 78.9 635
08:19:46 1 1016 191 1 W 0 78.8 640
08:22:48 1 1016 192 0 NW 0 78 634
08:25:47 2 1015 192 1 NW 0 77.6 626
08:28:48 2 1015 192 2 NW 0 79.1 630
08:31:48 2 1015 193 0 N 0 79.7 629
08:34:48 3 1015 193 2 NW 0 78.5 626
08:37:47 3 1015 193 0 O 0 74.8 620
08:40:47 3 1016 194 0 N 0 73 615
08:43:48 3 1016 194 0 W 0 72.1 612
08:46:48 3 1016 194 0 SW 0 71.6 608
08:49:49 3 1016 194 0 O 0 71.3 612
08:52:48 3 1016 194 0 SO 0 71.3 605
08:55:47 3 1016 195 0 W 0 70.7 604
08:58:49 4 1017 195 0 SO 0 69.9 608
09:01:49 4 1016 195 0 SW 0 69.6 609
09:04:49 4 1016 195 2 W 0 69.3 608
09:07:49 4 1015 195 0 SW 0 68.9 600
09:10:50 4 1016 196 1 S 0 68.5 600
09:13:47 4 1016 196 0 S 0 68.2 601
09:16:47 5 1016 196 0 O 0 68.2 597
09:19:49 5 1016 197 0 O 0 66.6 592
09:22:49 5 1016 197 0 NW 0 66 595
09:25:47 6 1016 198 1 S 0 64.5 601
09:28:49 6 1016 198 2 N 0 64 612
09:31:47 6 1016 199 3 N 0 63.5 609
09:34:49 7 1016 200 0 SW 0 62.8 619
09:37:49 7 1016 201 2 W 0 60.9 621
09:40:47 7 1016 202 4 W 0 60.5 621
09:43:49 7 1016 202 4 O 0 61.2 629
09:46:47 7 1016 203 1 S 0 61.7 627
09:49:48 8 1016 204 0 W 0 61.8 638
09:52:48 8 1016 205 0 S 0 61.7 635
09:55:49 8 1016 205 0 NW 0 60.9 635
09:58:47 8 1016 205 3 S 0 59.4 644
10:01:48 8 1015 205 3 W 0 59.9 649
10:04:48 8 1016 206 0 NW 0 59.8 653
10:07:50 9 1015 206 0 NW 0 59.1 653
10:10:49 9 1016 206 0 NW 0 59.1 654
10:13:49 9 1016 206 0 NW 0 58.1 656
10:16:48 9 1016 206 0 NW 0 57 646
10:19:47 9 1017 206 2 S 0 56.6 649
10:22:47 10 1016 207 0 SO 0 56.1 660
10:25:52 10 1016 207 2 NW 0 55.8 662
10:28:49 10 1015 207 0 NO 0 54.4 668
10:31:48 10 1016 207 3 W 0 47.4 671
10:34:29 9 1016 193 3 0 40 673
10:37:49 11 1016 207 2 O 0 42.5 478
10:40:48 11 1016 208 2 N 0 40.6 489
10:43:48 11 1015 208 1 NW 0 40.1 608
10:46:47 11 1016 208 5 N 0 41 635
10:49:48 11 1016 208 2 NW 0 40.5 632
10:52:47 11 1016 208 3 NW 0 41.6 624
10:55:46 11 1016 209 4 0 42.3 629
10:58:48 12 1016 209 4 NW 0 41.9 623
11:01:49 12 1016 209 1 N 0 40.3 626
11:04:48 12 1016 209 6 NO 0 40.9 633
11:07:49 12 1016 210 8 NW 0 42.4 644
11:10:49 12 1015 210 8 O 0 41.9 647
11:13:47 12 1017 210 0 SO 0 41.3 648
11:16:47 12 1016 210 3 N 0 41.6 650
11:19:47 12 1016 210 2 N 0 40.4 647
11:22:47 12 1015 211 1 N 0 40 654
11:25:51 13 1016 211 6 NW 0 39.9 650
11:28:46 13 1016 211 2 O 0 39.3 653
11:31:48 13 1016 211 1 NO 0 38.8 663
11:34:48 13 1016 212 3 NW 0 37.6 670
11:37:48 14 1015 212 4 NO 0 37 674
11:40:49 14 1016 212 3 NW 0 37 673
11:43:49 15 1016 213 2 NW 0 36.8 665
11:46:47 15 1016 213 2 NO 0 34.6 677
11:49:50 15 1016 214 5 NW 0 31.5 691
11:52:46 15 1016 214 4 N 0 31.3 706
11:55:49 15 1015 214 2 NO 0 30.8 712
11:58:48 15 1016 215 2 NW 0 29.5 714
12:01:49 15 1015 215 2 SW 0 29.9 681
12:04:50 15 1015 216 3 NW 0 29.7 682
12:07:49 15 1015 216 6 O 0 29.2 674
12:10:48 15 1015 216 9 N 0 28.7 682
12:13:50 15 1015 217 5 NW 0 28.4 688
12:16:50 16 1015 217 4 NW 0 28.6 689
12:19:48 16 1016 207 3 W 0 28.3 674
12:22:49 16 1014 202 3 O 0 28.5 524
12:25:47 16 1015 203 3 0 27.9 431
12:28:49 16 1015 203 4 NW 0 25.5 407
12:31:50 16 1014 220 2 NO 0 25.2 407
12:34:47 16 1014 220 4 NW 0 25.6 407
12:37:47 16 1016 220 3 O 0 26.3 465
12:40:48 16 1016 220 3 NW 0 26.2 504
12:43:48 16 1014 222 5 N 0 28 506
12:46:48 17 1015 199 2 NO 0 26.4 479
12:49:49 17 1015 201 4 NW 0 26.6 404
12:52:51 17 1015 203 3 0 25.9 408
12:55:51 17 1014 204 4 NW 0 26 404
12:58:48 17 1014 228 5 N 0 26.4 407
13:01:48 17 1015 229 6 SO 0 24.9 404
13:04:49 17 1015 229 2 NW 0 25.2 407
13:07:47 17 1015 230 5 N 0 24.1 418
13:10:48 17 1016 230 6 N 0 23.8 428
13:13:46 17 1015 231 9 N 0 24.2 427
13:16:48 17 1014 230 6 SW 0 22.8 436
13:19:50 17 1014 230 4 O 0 23.8 434
13:22:48 17 1015 230 4 NO 0 24.4 451
13:25:46 17 1014 230 5 N 0 24.8 454
13:28:47 17 1014 231 4 O 0 25.4 460
13:31:48 18 1014 231 5 W 0 25.2 466
13:34:47 18 1014 233 5 NO 0 24 468
13:37:49 18 1014 234 9 N 0 23.5 466
13:40:47 17 1014 235 8 NO 0 24.3 472
13:43:47 18 1013 236 3 N 0 24.8 481
13:46:48 18 1014 239 1 SO 0 24.4 489
13:49:47 18 1014 241 5 NO 0 26.3 489
13:52:52 18 1014 242 3 NW 0 25.2 498
13:55:50 18 1013 242 3 NW 0 23.4 500
13:58:48 18 1014 243 6 N 0 22.4 514
14:01:47 18 1014 243 5 W 0 22 515
14:04:47 18 1014 243 5 NW 0 22.4 521
14:07:47 18 1014 244 2 O 0 22.9 524
14:10:47 18 1013 244 1 NW 0 23 527
14:13:47 18 1013 244 4 O 0 22.6 534
14:16:46 18 1014 244 1 S 0 21.9 544
14:19:49 18 1013 244 2 NW 0 22.1 554
14:22:49 18 1014 245 4 NW 0 22 555
14:25:47 18 1014 245 6 N 0 22.1 559
14:28:48 18 1014 245 7 NW 0 21.9 570
14:31:48 18 1014 245 3 N 0 21.9 576
14:34:46 18 1014 245 4 N 0 22.2 585
14:37:45 18 1013 245 4 0 22 586
14:40:47 18 1014 245 2 O 0 21.4 583
14:43:48 18 1014 245 1 SO 0 22.6 594
14:46:48 18 1014 245 4 O 0 23.6 603
14:49:50 18 1013 246 2 SO 0 23.9 606
14:52:47 19 1014 246 3 NW 0 23.6 607
14:55:48 18 1014 246 3 NO 0 23.7 603
14:58:49 18 1014 246 2 O 0 23.3 604
15:01:47 18 1013 246 1 NO 0 22.8 603
15:04:48 18 1013 245 2 NO 0 23.4 605
15:07:49 18 1013 246 3 NW 0 23 607
15:10:51 18 1013 246 2 NO 0 23.1 609
15:13:47 18 1013 246 3 O 0 22.6 612
15:16:48 18 1013 246 3 NW 0 22.3 612
15:19:49 18 1013 246 5 N 0 21.8 612
15:22:50 18 1013 246 1 N 0 21.8 620
15:25:49 18 1014 246 7 NW 0 21.7 624
15:28:49 18 1013 246 3 NW 0 21.7 627
15:31:49 18 1013 246 4 NO 0 21.4 624
15:34:49 18 1013 246 3 W 0 21.1 629
15:37:48 18 1013 246 0 SO 0 21.6 635
15:40:48 18 1013 246 4 NO 0 21 638
15:43:49 18 1013 246 1 SO 0 20.8 638
15:46:47 18 1013 246 0 S 0 20.9 645
15:49:48 18 1013 246 5 O 0 21.2 644
15:52:49 18 1013 246 3 S 0 21.6 644
15:55:50 18 1013 245 5 NW 0 22.2 645
15:58:49 18 1014 246 3 N 0 21.8 650
16:01:49 18 1013 245 7 NO 0 22 653
16:04:50 18 1013 245 1 NW 0 21.5 650
16:07:49 18 1013 245 5 NO 0 21.7 673
16:10:47 17 1013 244 3 N 0 21.5 682
16:13:47 17 1013 245 2 SO 0 21.5 685
16:16:48 17 1013 244 2 NO 0 21 689
16:19:47 17 1013 244 3 NO 0 21.3 694
16:22:49 17 1013 243 1 O 0 20.4 693
16:25:47 17 1013 243 2 N 0 20.4 689
16:28:49 17 1013 243 0 NW 0 20.3 685
16:31:46 17 1013 244 0 O 0 20.7 685
16:34:50 17 1013 242 5 N 0 21.8 661
16:37:47 18 1013 241 3 SW 0 22.3 626
16:40:47 17 1013 242 1 O 0 21.5 635
16:43:49 17 1013 241 3 O 0 22 668
16:46:47 17 1013 244 2 N 0 22.1 679
16:49:48 17 1013 244 3 N 0 22.2 678
16:52:49 17 1013 242 2 NO 0 22.8 679
16:55:47 17 1013 242 4 N 0 21.8 667
16:58:46 17 1013 242 1 O 0 22.2 667
17:01:48 17 1013 242 4 NO 0 22.2 663
17:04:49 17 1013 242 3 NO 0 22.5 662
17:07:49 17 1013 239 2 NW 0 22.8 656
17:10:47 17 1013 237 2 SO 0 23 652
17:13:45 16 1013 236 2 N 0 23 653
17:16:45 16 1013 235 1 S 0 23.6 649
17:19:48 16 1013 235 3 N 0 24 646
17:22:46 16 1013 227 5 0 24.3 646
17:25:48 16 1013 223 0 O 0 24.3 642
17:28:50 16 1013 219 0 NO 0 24.7 647
17:31:47 15 1013 216 0 NO 0 24.7 644
17:34:45 15 1013 216 0 O 0 25 641
17:37:48 15 1013 215 0 N 0 25.7 644
17:40:47 15 1013 216 0 SO 0 26.1 644
17:43:48 15 1013 211 0 NO 0 26.7 638
17:46:47 15 1013 211 1 0 27.1 485
17:49:46 15 1013 204 0 O 0 27.7 407
17:52:47 14 1013 201 0 O 0 28.2 403
17:55:48 14 1013 198 0 O 0 28.6 474
17:58:47 14 1013 195 0 NO 0 29.2 542
18:01:46 14 1013 191 0 O 0 29.3 545
18:04:47 14 1013 187 0 O 0 29.4 532
18:07:48 14 1013 183 0 O 0 29.7 524
18:10:49 13 1013 177 0 O 0 30.5 527
18:13:47 13 1013 171 0 O 0 30.9 524
18:16:46 13 1013 164 0 O 0 31.3 530
18:19:47 13 1013 157 0 S 0 31.8 533
18:22:50 13 1013 148 0 SO 0 32.2 536
18:25:49 12 1013 139 0 SO 0 32.6 526
18:28:49 12 1013 128 0 SO 0 33.1 530
18:31:49 12 1013 117 0 SW 0 33.7 538
18:34:46 12 1013 105 0 S 0 34 542
18:37:46 11 1013 92 0 S 0 34.6 554
18:40:49 11 1013 79 0 S 0 35.2 556
18:43:48 11 1013 64 0 SO 0 35.7 562
18:46:47 10 1013 50 0 SO 0 36.5 563
18:49:47 10 1013 37 0 SO 0 37.1 565
18:52:49 10 1013 26 0 SO 0 37.8 563
18:55:48 10 1013 17 0 SW 0 38.6 562
18:58:49 9 1013 10 0 SO 0 39 569
19:01:49 9 1013 6 0 SO 0 39.7 571
19:04:47 9 1013 3 0 SO 0 40.1 560
19:07:48 9 1014 0 0 SO 0 40.7 553
19:10:47 9 1013 0 0 SO 0 41.4 553
19:13:46 8 1013 0 0 SO 0 41.7 545
19:16:49 8 1013 0 0 SO 0 42.3 548
19:19:49 8 1013 0 0 SO 0 43.1 548
19:22:45 8 1013 0 0 SO 0 43.3 550
19:25:45 7 1013 0 0 SO 0 44.3 553
19:28:46 7 1013 0 0 SO 0 45.2 536
19:31:46 7 1013 0 0 SO 0 45.8 521
19:34:46 7 1013 0 0 SO 0 46.6 521
19:37:48 7 1014 0 0 SO 0 46.9 528
19:40:47 7 1013 0 0 SO 0 47.5 527
19:43:47 6 1014 0 0 SO 0 48.1 524
19:46:46 6 1013 0 0 SO 0 48.6 545
19:49:48 6 1013 0 0 SO 0 49 560
19:52:48 6 1014 0 0 SO 0 48.9 569
19:55:45 6 1014 0 0 SO 0 49.4 574
19:58:46 6 1013 0 0 SO 0 49.7 572
20:01:47 6 1013 0 0 SO 0 51.2 562
20:04:47 6 1014 0 0 SO 0 51.2 560
20:07:47 6 1013 0 0 SO 0 51.8 562
20:10:47 6 1014 0 0 SO 0 52.3 568
20:13:47 6 1014 0 0 SO 0 52.6 562
20:16:48 5 1013 0 0 SO 0 52.5 564
20:19:49 5 1013 0 0 SO 0 53.1 566
20:22:47 5 1013 0 0 SO 0 53.1 568
20:25:46 5 1013 0 0 SO 0 53.1 568
20:28:46 5 1013 0 0 SO 0 53.5 571
20:31:51 5 1013 0 0 SO 0 53.8 577
20:34:48 5 1014 0 0 SO 0 54.6 582
20:37:47 5 1014 0 0 SO 0 54.8 582
20:40:49 5 1013 0 0 SO 0 55.1 583
20:43:47 5 1013 0 0 SO 0 55.9 582
20:46:48 5 1013 0 0 SO 0 56 588
20:49:47 5 1014 0 0 SO 0 55.9 591
20:52:49 5 1014 0 0 SO 0 56.1 589
20:55:47 4 1013 0 0 SO 0 56.8 580
20:58:48 5 1014 0 0 SO 0 57.3 589
21:01:45 5 1014 0 0 S 0 57.3 588
21:04:47 5 1013 0 0 SO 0 57.1 594
21:07:46 5 1014 0 0 S 0 56.7 592
21:10:47 6 1013 0 0 S 0 55.8 598
21:13:44 6 1014 0 0 S 0 55.3 603
21:16:46 6 1013 0 0 SO 0 54.5 606
21:19:46 6 1014 0 0 SO 0 53.6 607
21:22:48 6 1014 0 0 SO 0 52.8 602
21:25:47 6 1014 0 0 SO 0 52.9 600
21:28:46 6 1014 0 0 SO 0 53 603
21:31:50 6 1014 0 0 SO 0 53.2 604
21:34:47 6 1014 0 0 SO 0 53.5 609
21:37:47 6 1014 0 0 SO 0 53.5 607
21:40:47 6 1014 0 0 SW 0 53.5 613
21:43:47 6 1014 0 0 SO 0 53.5 610
21:46:46 5 1014 0 0 SO 0 53.9 605
21:49:47 5 1013 0 0 SO 0 54.3 612
21:52:46 5 1014 0 0 SO 0 54.4 612
21:55:47 5 1014 0 0 SO 0 54.5 618
21:58:45 5 1013 0 0 SO 0 54.5 618
22:01:49 5 1015 0 0 SO 0 54.8 618
22:04:46 5 1014 0 0 SO 0 55.1 615
22:07:46 5 1013 0 0 SO 0 55.7 621
22:10:46 4 1013 0 0 SO 0 55.8 621
22:13:48 4 1014 0 0 SO 0 56.6 623
22:16:47 4 1014 0 0 SO 0 56.8 620
22:19:45 4 1014 0 0 SO 0 57.1 627
22:22:48 4 1015 0 0 SO 0 57.1 627
22:25:47 4 1014 0 0 SO 0 57.4 630
22:28:45 4 1014 0 0 SO 0 57.7 627
22:31:48 4 1014 0 0 NO 0 58.6 626
22:34:47 5 1014 0 0 SO 0 58.2 627
22:37:47 5 1014 0 0 SO 0 58.6 633
22:40:46 5 1014 0 0 SO 0 58.3 630
22:43:48 5 1014 0 0 SO 0 58 635
22:46:47 5 1014 0 0 SO 0 58.1 633
22:49:47 5 1013 0 0 SO 0 58.4 639
22:52:47 5 1014 0 0 SO 0 58.1 638
22:55:48 5 1014 0 0 SO 0 58.3 640
22:58:47 5 1014 0 0 SO 0 58.5 635
23:01:47 4 1014 0 0 SO 0 58.5 633
23:04:46 4 1014 0 0 SO 0 58.9 633
23:07:48 4 1014 0 0 SO 0 59.6 637
23:10:47 4 1014 0 0 SO 0 60.4 633
23:13:47 4 1014 0 0 SO 0 61.1 630
23:16:46 4 1014 0 0 SO 0 61.2 635
23:19:46 4 1014 0 0 SO 0 61.4 639
23:22:46 4 1014 0 0 NO 0 61.5 642
23:25:47 4 1014 0 0 NO 0 61.5 627
23:28:47 4 1014 0 0 S 0 61.6 630
23:31:46 4 1014 0 0 SO 0 61.7 635
23:34:49 4 1013 0 0 SO 0 62 639
23:37:48 4 1014 0 0 SO 0 61.9 644
23:40:48 4 1015 0 0 SO 0 61.5 639
23:43:48 4 1014 0 0 SO 0 61.5 641
23:46:48 4 1015 0 0 SO 0 61.6 647
23:49:48 3 1014 0 0 SO 0 62.1 635
23:52:49 3 1015 0 0 SO 0 62.2 647
23:55:47 3 1014 0 0 SO 0 62.5 644
23:58:48 3 1014 0 0 SO 0 63.1 653

Letzte Änderung : 22-Jul-2022
Copyright Jens Köhler, Wolfsburg, Obere Dorfstraße 10d